Time,TemperatureF,DewpointF,PressureIn,WindDirection,WindDirectionDegrees,WindSpeedMPH,WindSpeedGustMPH,Humidity,HourlyPrecipIn,Conditions,Clouds,dailyrainin,SolarRadiationWatts/m^2,SoftwareType,DateUTC
2013-07-11 00:12:00,64.0,39.0,-100.00,SW,214,3.0,12.0,40,0.00,,,0.00,0.000000,,2013-07-11 07:12:00,
2013-07-11 02:02:00,60.0,39.0,-100.00,SW,233,3.0,10.0,46,0.00,,,0.00,0.000000,,2013-07-11 09:02:00,
2013-07-11 02:21:00,60.0,39.0,-100.00,SW,233,3.0,10.0,46,0.00,,,0.00,0.000000,,2013-07-11 09:21:00,
2013-07-11 02:31:00,57.0,41.0,-100.00,WNW,302,3.0,5.0,54,0.00,,,0.00,0.000000,,2013-07-11 09:31:00,
2013-07-11 02:53:00,57.0,41.0,-100.00,WNW,302,3.0,5.0,54,0.00,,,0.00,0.000000,,2013-07-11 09:53:00,
2013-07-11 03:01:00,57.0,41.0,-100.00,WNW,302,3.0,5.0,54,0.00,,,0.00,0.000000,,2013-07-11 10:01:00,
2013-07-11 03:11:00,57.0,41.0,-100.00,WNW,302,3.0,5.0,54,0.00,,,0.00,0.000000,,2013-07-11 10:11:00,
2013-07-11 03:21:00,57.0,41.0,-100.00,WNW,302,3.0,5.0,54,0.00,,,0.00,0.000000,,2013-07-11 10:21:00,
2013-07-11 03:31:00,56.0,43.0,-100.00,WSW,249,2.0,6.0,61,0.00,,,0.00,0.000000,,2013-07-11 10:31:00,
2013-07-11 04:02:00,56.0,43.0,-100.00,WSW,249,2.0,6.0,61,0.00,,,0.00,0.000000,,2013-07-11 11:02:00,
2013-07-11 04:12:00,56.0,43.0,-100.00,WSW,249,2.0,6.0,61,0.00,,,0.00,0.000000,,2013-07-11 11:12:00,
2013-07-11 04:22:00,56.0,43.0,-100.00,WSW,249,2.0,6.0,61,0.00,,,0.00,0.000000,,2013-07-11 11:22:00,
2013-07-11 04:31:00,54.0,42.0,-100.00,SSW,212,3.0,4.0,63,0.00,,,-99.99,0.000000,,2013-07-11 11:31:00,
2013-07-11 04:53:00,54.0,42.0,-100.00,SSW,212,3.0,4.0,63,0.00,,,-99.99,0.000000,,2013-07-11 11:53:00,
2013-07-11 05:01:00,54.0,42.0,-100.00,SSW,212,3.0,4.0,63,0.00,,,-99.99,0.000000,,2013-07-11 12:01:00,
2013-07-11 05:12:00,54.0,42.0,-100.00,SSW,212,3.0,4.0,63,0.00,,,-99.99,0.000000,,2013-07-11 12:12:00,
2013-07-11 05:22:00,54.0,42.0,-100.00,SSW,212,3.0,4.0,63,0.00,,,-99.99,0.000000,,2013-07-11 12:22:00,
2013-07-11 05:31:00,54.0,44.0,-100.00,South,191,3.0,5.0,68,0.00,,,-99.99,0.000000,,2013-07-11 12:31:00,
2013-07-11 05:57:00,54.0,44.0,-100.00,South,191,3.0,5.0,68,0.00,,,-99.99,0.000000,,2013-07-11 12:57:00,
2013-07-11 06:12:00,54.0,44.0,-100.00,South,191,3.0,5.0,68,0.00,,,-99.99,0.000000,,2013-07-11 13:12:00,
2013-07-11 06:22:00,54.0,44.0,-100.00,South,191,3.0,5.0,68,0.00,,,-99.99,0.000000,,2013-07-11 13:22:00,
2013-07-11 06:31:00,53.0,46.0,-100.00,South,191,2.0,4.0,76,0.00,,,0.00,15.000000,,2013-07-11 13:31:00,
2013-07-11 07:04:00,53.0,46.0,-100.00,South,191,2.0,4.0,76,0.00,,,0.00,15.000000,,2013-07-11 14:04:00,
2013-07-11 07:13:00,53.0,46.0,-100.00,South,191,2.0,4.0,76,0.00,,,0.00,15.000000,,2013-07-11 14:13:00,
2013-07-11 07:22:00,53.0,46.0,-100.00,South,191,2.0,4.0,76,0.00,,,0.00,15.000000,,2013-07-11 14:22:00,
2013-07-11 07:31:00,61.0,49.0,-100.00,SSW,206,3.0,5.0,64,0.00,,,0.00,157.000000,,2013-07-11 14:31:00,
2013-07-11 08:12:00,61.0,49.0,-100.00,SSW,206,3.0,5.0,64,0.00,,,0.00,157.000000,,2013-07-11 15:12:00,
2013-07-11 08:23:00,61.0,49.0,-100.00,SSW,206,3.0,5.0,64,0.00,,,0.00,157.000000,,2013-07-11 15:23:00,
2013-07-11 08:31:00,63.0,46.0,-100.00,South,190,4.0,7.0,54,0.00,,,0.00,382.000000,,2013-07-11 15:31:00,
2013-07-11 08:57:00,63.0,46.0,-100.00,South,190,4.0,7.0,54,0.00,,,0.00,382.000000,,2013-07-11 15:57:00,
2013-07-11 09:04:00,63.0,46.0,-100.00,South,190,4.0,7.0,54,0.00,,,0.00,382.000000,,2013-07-11 16:04:00,
2013-07-11 09:13:00,63.0,46.0,-100.00,South,190,4.0,7.0,54,0.00,,,0.00,382.000000,,2013-07-11 16:13:00,
2013-07-11 09:22:00,63.0,46.0,-100.00,South,190,4.0,7.0,54,0.00,,,0.00,382.000000,,2013-07-11 16:22:00,
2013-07-11 09:31:00,68.0,46.0,-100.00,SE,132,3.0,7.0,45,0.00,,,0.00,562.000000,,2013-07-11 16:31:00,
2013-07-11 09:56:00,68.0,46.0,-100.00,SE,132,3.0,7.0,45,0.00,,,0.00,562.000000,,2013-07-11 16:56:00,
2013-07-11 10:02:00,68.0,46.0,-100.00,SE,132,3.0,7.0,45,0.00,,,0.00,562.000000,,2013-07-11 17:02:00,
2013-07-11 10:13:00,68.0,46.0,-100.00,SE,132,3.0,7.0,45,0.00,,,0.00,562.000000,,2013-07-11 17:13:00,
2013-07-11 10:23:00,68.0,46.0,-100.00,SE,132,3.0,7.0,45,0.00,,,0.00,562.000000,,2013-07-11 17:23:00,
2013-07-11 11:03:00,73.0,44.0,-100.00,SE,141,4.0,8.0,35,0.00,,,0.00,722.000000,,2013-07-11 18:03:00,
2013-07-11 11:13:00,73.0,44.0,-100.00,SE,141,4.0,8.0,35,0.00,,,0.00,722.000000,,2013-07-11 18:13:00,
2013-07-11 11:22:00,73.0,44.0,-100.00,SE,141,4.0,8.0,35,0.00,,,0.00,722.000000,,2013-07-11 18:22:00,
2013-07-11 11:31:00,75.0,39.0,-100.00,ESE,116,6.0,12.0,27,0.00,,,0.00,845.000000,,2013-07-11 18:31:00,
2013-07-11 11:56:00,75.0,39.0,-100.00,ESE,116,6.0,12.0,27,0.00,,,0.00,845.000000,,2013-07-11 18:56:00,
2013-07-11 12:03:00,75.0,39.0,-100.00,ESE,116,6.0,12.0,27,0.00,,,0.00,845.000000,,2013-07-11 19:03:00,
2013-07-11 12:12:00,75.0,39.0,-100.00,ESE,116,6.0,12.0,27,0.00,,,0.00,845.000000,,2013-07-11 19:12:00,
2013-07-11 12:22:00,75.0,39.0,-100.00,ESE,116,6.0,12.0,27,0.00,,,0.00,845.000000,,2013-07-11 19:22:00,
2013-07-11 12:31:00,75.0,40.0,-100.00,South,171,5.0,11.0,28,0.00,,,0.00,922.000000,,2013-07-11 19:31:00,
2013-07-11 13:03:00,75.0,40.0,-100.00,South,171,5.0,11.0,28,0.00,,,0.00,922.000000,,2013-07-11 20:03:00,
2013-07-11 13:12:00,75.0,40.0,-100.00,South,171,5.0,11.0,28,0.00,,,0.00,922.000000,,2013-07-11 20:12:00,
2013-07-11 13:23:00,75.0,40.0,-100.00,South,171,5.0,11.0,28,0.00,,,0.00,922.000000,,2013-07-11 20:23:00,
2013-07-11 13:31:00,78.0,39.0,-100.00,SSW,192,8.0,15.0,25,0.00,,,0.00,954.000000,,2013-07-11 20:31:00,
2013-07-11 14:03:00,78.0,39.0,-100.00,SSW,192,8.0,15.0,25,0.00,,,0.00,954.000000,,2013-07-11 21:03:00,
2013-07-11 14:13:00,78.0,39.0,-100.00,SSW,192,8.0,15.0,25,0.00,,,0.00,954.000000,,2013-07-11 21:13:00,
2013-07-11 14:22:00,78.0,39.0,-100.00,SSW,192,8.0,15.0,25,0.00,,,0.00,954.000000,,2013-07-11 21:22:00,
2013-07-11 14:31:00,79.0,39.0,-100.00,WSW,257,6.0,15.0,24,0.00,,,0.00,940.000000,,2013-07-11 21:31:00,
2013-07-11 15:04:00,79.0,39.0,-100.00,WSW,257,6.0,15.0,24,0.00,,,0.00,940.000000,,2013-07-11 22:04:00,
2013-07-11 15:13:00,79.0,39.0,-100.00,WSW,257,6.0,15.0,24,0.00,,,0.00,940.000000,,2013-07-11 22:13:00,
2013-07-11 15:22:00,79.0,39.0,-100.00,WSW,257,6.0,15.0,24,0.00,,,0.00,940.000000,,2013-07-11 22:22:00,
2013-07-11 15:31:00,79.0,39.0,-100.00,WSW,246,7.0,15.0,24,0.00,,,0.00,873.000000,,2013-07-11 22:31:00,
2013-07-11 16:03:00,79.0,39.0,-100.00,WSW,246,7.0,15.0,24,0.00,,,0.00,873.000000,,2013-07-11 23:03:00,
2013-07-11 16:23:00,79.0,39.0,-100.00,WSW,246,7.0,15.0,24,0.00,,,0.00,873.000000,,2013-07-11 23:23:00,
2013-07-11 16:31:00,78.0,39.0,-100.00,West,262,7.0,17.0,25,0.00,,,0.00,749.000000,,2013-07-11 23:31:00,
2013-07-11 17:03:00,78.0,39.0,-100.00,West,262,7.0,17.0,25,0.00,,,0.00,749.000000,,2013-07-12 00:03:00,
2013-07-11 17:12:00,78.0,39.0,-100.00,West,262,7.0,17.0,25,0.00,,,0.00,749.000000,,2013-07-12 00:12:00,
2013-07-11 17:23:00,78.0,39.0,-100.00,West,262,7.0,17.0,25,0.00,,,0.00,749.000000,,2013-07-12 00:23:00,
2013-07-11 17:31:00,76.0,39.0,-100.00,WSW,256,8.0,18.0,26,0.00,,,0.00,597.000000,,2013-07-12 00:31:00,
2013-07-11 17:58:00,76.0,39.0,-100.00,WSW,256,8.0,18.0,26,0.00,,,0.00,597.000000,,2013-07-12 00:58:00,
2013-07-11 18:12:00,76.0,39.0,-100.00,WSW,256,8.0,18.0,26,0.00,,,0.00,597.000000,,2013-07-12 01:12:00,
2013-07-11 18:23:00,76.0,39.0,-100.00,WSW,256,8.0,18.0,26,0.00,,,0.00,597.000000,,2013-07-12 01:23:00,
2013-07-11 18:56:00,74.0,36.0,-100.00,WSW,255,7.0,15.0,25,0.00,,,0.00,420.000000,,2013-07-12 01:56:00,
2013-07-11 19:03:00,74.0,36.0,-100.00,WSW,255,7.0,15.0,25,0.00,,,0.00,420.000000,,2013-07-12 02:03:00,
2013-07-11 19:14:00,74.0,36.0,-100.00,WSW,255,7.0,15.0,25,0.00,,,0.00,420.000000,,2013-07-12 02:14:00,
2013-07-11 19:24:00,74.0,36.0,-100.00,WSW,255,7.0,15.0,25,0.00,,,0.00,420.000000,,2013-07-12 02:24:00,
2013-07-11 19:31:00,69.0,30.0,-100.00,SW,220,6.0,13.0,23,0.00,,,0.00,167.000000,,2013-07-12 02:31:00,
2013-07-11 19:55:00,69.0,30.0,-100.00,SW,220,6.0,13.0,23,0.00,,,0.00,167.000000,,2013-07-12 02:55:00,
2013-07-11 20:02:00,69.0,30.0,-100.00,SW,220,6.0,13.0,23,0.00,,,0.00,167.000000,,2013-07-12 03:02:00,
2013-07-11 20:13:00,69.0,30.0,-100.00,SW,220,6.0,13.0,23,0.00,,,0.00,167.000000,,2013-07-12 03:13:00,
2013-07-11 20:23:00,69.0,30.0,-100.00,SW,220,6.0,13.0,23,0.00,,,0.00,167.000000,,2013-07-12 03:23:00,
2013-07-11 20:31:00,63.0,33.0,-100.00,SW,223,4.0,10.0,33,0.00,,,0.00,16.000000,,2013-07-12 03:31:00,
2013-07-11 20:56:00,63.0,33.0,-100.00,SW,223,4.0,10.0,33,0.00,,,0.00,16.000000,,2013-07-12 03:56:00,
2013-07-11 21:01:00,63.0,33.0,-100.00,SW,223,4.0,10.0,33,0.00,,,0.00,16.000000,,2013-07-12 04:01:00,
2013-07-11 21:11:00,63.0,33.0,-100.00,SW,223,4.0,10.0,33,0.00,,,0.00,16.000000,,2013-07-12 04:11:00,
2013-07-11 21:21:00,63.0,33.0,-100.00,SW,223,4.0,10.0,33,0.00,,,0.00,16.000000,,2013-07-12 04:21:00,
2013-07-11 21:31:00,60.0,36.0,-100.00,SSW,197,4.0,7.0,40,0.00,,,0.00,2.000000,,2013-07-12 04:31:00,
2013-07-11 21:53:00,60.0,36.0,-100.00,SSW,197,4.0,7.0,40,0.00,,,0.00,2.000000,,2013-07-12 04:53:00,
2013-07-11 22:02:00,60.0,36.0,-100.00,SSW,197,4.0,7.0,40,0.00,,,0.00,2.000000,,2013-07-12 05:02:00,
2013-07-11 22:11:00,60.0,36.0,-100.00,SSW,197,4.0,7.0,40,0.00,,,0.00,2.000000,,2013-07-12 05:11:00,
2013-07-11 22:22:00,60.0,36.0,-100.00,SSW,197,4.0,7.0,40,0.00,,,0.00,2.000000,,2013-07-12 05:22:00,
2013-07-11 22:31:00,55.0,38.0,-100.00,WSW,245,3.0,5.0,53,0.00,,,0.00,0.000000,,2013-07-12 05:31:00,
2013-07-11 22:53:00,55.0,38.0,-100.00,WSW,245,3.0,5.0,53,0.00,,,0.00,0.000000,,2013-07-12 05:53:00,
2013-07-11 23:01:00,55.0,38.0,-100.00,WSW,245,3.0,5.0,53,0.00,,,0.00,0.000000,,2013-07-12 06:01:00,
2013-07-11 23:11:00,55.0,38.0,-100.00,WSW,245,3.0,5.0,53,0.00,,,0.00,0.000000,,2013-07-12 06:11:00,
2013-07-11 23:22:00,55.0,38.0,-100.00,WSW,245,3.0,5.0,53,0.00,,,0.00,0.000000,,2013-07-12 06:22:00,
2013-07-11 23:31:00,54.0,37.0,-100.00,SSW,212,3.0,5.0,53,0.00,,,0.00,0.000000,,2013-07-12 06:31:00,
2013-07-11 23:52:00,54.0,37.0,-100.00,SSW,212,3.0,5.0,53,0.00,,,0.00,0.000000,,2013-07-12 06:52:00,